Theta_e
331 330 331 331 331 332 329 328 328 326 325 322 321 321 320 321 323 323 324 324 324 324 323 323 324 325 326 327 328 328 328 329 329 329 328 327 326 326 324 324 325 326 326 327 328 329 331 332 332 332 333 333 333 333 333 333 333 333 332 333 333 333 333 333 334 334 334 334 334 334 334 333 334 334 334 333 333 333 333 334 334 333 334 335 335
328 329 329 330 330 329 328 328 327 324 322 321 321 323 323 325 326 326 326 326 326 326 326 327 327 327 328 328 329 330 330 330 330 330 330 330 330 329 328 326 325 325 324 324 325 326 326 327 328 328 328 329 329 329 329 330 330 331 331 332 332 332 332 333 333 333 333 333 334 334 334 333 333 334 334 334 333 333 332 332 332 332 333 336 335
325 327 329 328 328 329 328 327 324 323 322 322 324 325 326 327 327 327 327 327 327 327 327 327 327 327 327 328 328 329 329 330 330 331 331 330 331 331 330 330 328 327 327 327 326 326 325 325 325 324 324 324 324 325 325 326 327 327 328 328 329 330 330 331 332 332 332 333 333 334 334 333 333 333 333 333 333 333 333 333 333 332 332 335 335
326 326 328 328 329 328 327 325 323 323 324 325 326 326 327 327 327 328 328 328 328 328 327 327 327 327 327 327 328 328 328 329 330 331 331 330 330 330 330 330 330 329 329 329 328 327 326 325 325 325 324 323 323 322 322 323 323 324 325 325 325 326 327 328 329 330 331 332 332 332 333 333 334 335 334 333 333 333 333 333 333 333 332 333 334
326 326 328 330 330 326 324 324 323 325 326 326 326 327 327 328 328 328 328 328 328 328 328 327 327 326 326 326 326 327 327 327 328 328 329 330 329 329 330 330 330 330 328 328 328 325 323 323 324 324 323 323 322 321 321 320 320 321 321 322 323 323 324 324 325 326 327 329 330 331 331 332 335 336 336 335 335 334 334 333 333 333 333 334 334
326 326 325 326 327 323 322 325 325 326 327 327 327 328 328 328 329 328 328 328 328 327 326 325 324 323 322 322 322 322 323 323 323 323 325 327 328 328 328 329 328 328 326 326 326 323 323 324 325 324 323 323 322 321 321 321 319 318 318 317 318 320 322 322 323 323 324 324 326 329 331 332 334 336 336 336 335 334 334 333 332 331 332 332 333
324 323 321 323 325 323 324 326 327 327 328 328 329 329 329 329 328 327 327 327 326 325 325 324 322 322 320 319 316 314 314 314 314 315 320 325 326 326 327 327 326 325 325 325 325 324 325 326 326 325 324 325 325 323 323 323 322 321 318 316 315 315 318 320 321 322 322 322 323 327 329 331 333 335 335 335 335 334 334 333 331 330 330 330 330
322 322 324 327 329 327 327 328 328 329 329 329 330 330 329 328 327 327 327 327 326 326 325 324 322 321 319 316 312 310 309 307 310 312 317 323 324 325 325 325 324 324 324 325 325 325 326 325 324 325 324 323 324 324 322 323 323 323 321 318 316 314 313 315 318 320 321 322 323 326 328 329 331 333 334 334 334 334 334 332 332 331 331 331 329
326 328 330 331 330 329 329 329 329 330 331 330 331 331 330 329 328 328 328 327 327 326 324 322 321 319 317 314 311 310 307 308 315 316 319 321 320 322 322 321 320 322 324 324 325 325 325 324 324 324 323 322 321 321 321 321 321 322 320 317 315 314 313 313 314 315 318 321 324 326 327 329 329 330 330 331 332 332 333 332 332 331 332 332 331
331 332 334 333 331 330 330 330 330 331 332 331 331 331 330 330 329 328 328 327 326 324 322 321 320 318 315 313 310 307 304 308 317 319 320 320 320 321 320 320 319 321 323 324 325 324 323 322 322 323 323 322 319 318 318 320 320 320 320 318 316 315 315 314 313 313 316 320 323 324 326 327 328 329 329 329 329 329 330 331 331 331 332 332 332
332 333 333 332 331 331 330 330 330 330 331 330 331 330 330 330 329 328 327 325 323 322 321 320 319 317 314 312 308 304 303 306 310 313 316 317 318 319 318 318 319 321 321 322 324 322 321 321 320 320 321 321 319 317 315 315 315 318 319 319 319 319 316 313 313 315 318 320 321 324 325 325 327 328 328 329 328 328 326 325 327 328 328 329 330
333 333 332 331 330 330 330 330 330 329 329 329 329 329 329 328 328 326 324 323 321 321 320 319 317 315 312 308 305 303 303 304 304 305 309 312 315 315 312 313 317 321 321 321 320 318 318 319 319 318 319 319 319 318 316 312 308 310 312 313 316 317 315 310 311 317 319 320 322 324 323 322 323 324 326 328 329 329 325 322 323 323 325 325 326
333 333 332 331 330 329 329 329 329 329 328 327 327 327 326 325 325 323 322 321 321 320 319 317 315 311 307 305 304 304 304 304 303 302 303 307 311 310 308 308 312 317 319 318 316 315 316 317 317 315 315 315 314 313 311 308 305 304 303 305 307 309 308 307 311 319 321 321 323 322 321 321 321 320 320 323 325 325 323 321 321 322 323 324 324
332 332 331 331 329 328 328 328 327 327 326 325 325 325 325 324 323 322 322 321 320 319 317 313 310 307 305 305 305 305 304 303 302 301 301 304 305 306 306 305 305 307 309 310 309 310 311 311 309 308 308 307 306 304 303 302 302 301 301 302 302 303 303 307 314 320 321 322 321 319 319 319 319 319 318 319 319 318 316 316 317 320 323 323 324
331 329 329 328 326 324 324 323 322 322 322 323 324 324 324 323 322 322 321 320 318 316 312 309 306 305 305 304 304 304 304 301 301 300 300 303 304 304 303 301 301 302 303 303 303 304 304 303 303 302 303 303 302 302 302 302 302 302 304 303 302 302 302 308 316 319 319 320 318 317 317 317 318 317 318 317 315 314 313 313 314 318 322 323 324
327 325 324 323 321 319 318 317 318 320 322 323 323 323 322 322 321 321 319 318 315 312 309 307 305 305 305 303 302 303 302 300 300 301 300 302 302 301 301 300 301 300 300 300 300 301 302 303 305 306 307 308 309 308 308 308 307 307 307 306 303 303 303 309 316 318 318 318 316 317 316 316 316 316 316 315 313 312 313 312 313 316 320 323 325
325 324 323 321 318 317 315 314 317 320 322 322 322 321 321 321 320 319 317 315 312 309 307 306 306 306 304 302 301 301 301 300 300 301 300 300 301 300 301 300 300 300 301 302 304 306 308 310 311 312 313 313 313 313 312 312 312 311 310 309 305 304 305 309 315 317 318 317 316 317 315 315 316 315 316 314 311 312 313 313 313 315 318 322 326
325 323 321 318 316 315 312 311 316 319 320 322 322 321 319 319 318 316 314 311 309 307 306 306 305 304 302 301 301 301 300 301 300 301 301 300 300 300 300 301 303 306 308 310 312 312 313 313 313 313 313 313 313 312 312 312 312 312 312 311 310 307 306 307 312 316 316 316 316 316 315 315 316 315 314 311 309 310 313 314 314 315 317 320 324
321 316 312 310 310 310 309 309 312 316 318 319 321 319 317 316 315 313 311 308 307 306 306 305 304 302 301 301 301 301 301 301 301 300 300 300 300 301 304 307 310 312 312 312 312 312 312 312 312 312 312 312 312 312 312 312 313 313 313 312 312 311 310 310 313 316 316 317 316 315 316 316 316 315 312 309 308 309 310 314 316 315 316 319 323
309 307 304 304 305 305 307 308 310 313 316 316 317 317 314 313 311 309 307 306 306 306 305 302 301 301 301 301 301 301 301 300 300 300 301 302 305 308 311 312 313 312 312 311 311 311 311 310 310 310 311 311 312 312 313 314 314 314 314 314 313 313 314 314 315 316 316 316 316 315 316 316 316 314 310 308 308 308 309 311 316 318 316 319 322
308 305 302 303 303 303 305 308 311 312 313 314 314 312 310 309 309 306 305 306 308 306 303 301 301 301 301 301 301 300 300 300 302 303 306 309 311 312 313 313 312 311 311 310 309 309 309 309 310 311 312 313 313 314 315 315 315 315 315 314 314 314 315 316 316 316 316 316 316 315 315 316 316 313 310 309 310 309 309 310 314 318 318 319 322
310 309 303 301 303 306 307 309 311 309 310 309 308 309 309 309 308 306 307 308 307 304 302 301 300 300 301 300 300 300 302 304 307 309 311 312 313 313 312 311 310 310 310 309 311 311 311 311 313 314 314 314 314 315 315 315 314 314 314 314 315 315 315 315 315 316 316 315 315 315 315 315 313 310 309 310 311 310 310 311 312 315 318 320 321
307 309 306 301 304 309 307 307 308 307 310 310 309 311 310 311 311 310 312 311 308 304 302 300 300 300 300 300 301 302 306 309 310 312 313 313 314 313 311 311 310 310 309 311 315 315 314 314 315 315 314 315 315 315 315 315 315 314 314 314 314 314 314 314 315 315 315 315 315 315 315 314 312 309 309 310 311 312 311 311 312 314 316 318 320
306 310 309 302 302 306 306 306 305 307 313 313 313 313 312 314 315 313 313 313 310 305 304 302 300 300 300 301 303 306 309 311 311 313 314 314 314 313 313 312 311 312 312 313 316 316 315 315 315 315 315 315 315 315 315 315 314 314 314 314 314 314 314 314 314 314 314 314 314 314 314 314 312 311 310 310 311 312 312 311 312 313 314 315 318
308 311 310 307 303 304 306 308 307 306 312 315 314 313 314 317 315 314 314 313 310 308 307 304 300 300 301 304 307 309 311 312 312 313 314 314 314 313 313 313 312 314 315 315 316 315 315 315 315 315 315 315 315 314 314 314 314 314 313 313 313 313 313 313 314 314 314 314 314 314 315 314 312 311 311 310 311 312 313 313 312 312 313 313 315
309 309 308 308 306 303 305 309 309 307 309 312 315 315 315 317 314 313 314 312 310 309 307 302 300 302 304 307 309 311 312 313 313 313 314 314 314 313 313 313 313 315 316 315 315 315 315 315 315 315 315 314 314 314 314 314 313 313 313 312 312 312 312 313 313 314 314 314 314 314 315 314 312 312 312 312 311 312 313 313 313 313 313 313 312
309 306 305 307 305 302 303 307 309 310 309 310 315 316 315 315 314 313 312 311 309 308 305 302 304 306 307 308 309 311 312 313 314 314 314 314 313 313 313 314 315 315 315 315 315 314 315 315 315 315 315 314 314 313 313 313 312 312 312 312 312 312 312 313 313 313 314 314 314 314 315 315 313 312 313 312 312 311 312 313 314 314 314 314 312
306 304 304 305 304 302 304 307 308 310 312 312 315 316 315 314 314 314 312 308 307 306 304 304 307 308 308 308 310 312 313 313 313 313 314 313 313 312 312 313 314 315 315 314 314 314 315 315 315 315 314 314 313 313 313 312 312 312 312 312 312 312 312 313 313 313 313 314 314 314 314 314 313 312 313 313 313 312 312 313 313 314 315 315 313
302 302 304 305 304 302 303 306 309 312 314 315 316 316 314 314 314 314 312 309 308 306 304 305 308 310 309 309 311 312 313 313 312 313 313 312 312 312 311 313 314 315 314 314 314 314 315 315 315 314 314 313 313 313 313 312 312 312 312 312 312 312 313 313 313 313 313 313 314 314 314 314 313 313 313 313 313 313 313 313 313 314 314 315 316
301 303 306 306 303 302 306 308 311 315 316 316 317 315 313 314 314 314 312 310 309 307 305 306 309 310 309 310 311 312 312 312 311 311 311 312 312 311 312 314 314 314 314 314 314 314 315 315 314 314 313 313 313 313 312 312 312 312 312 312 312 312 313 313 313 313 313 313 313 313 313 313 314 314 314 314 313 314 314 314 314 314 314 315 316
302 303 306 304 302 304 309 313 314 316 317 315 315 315 314 314 313 314 313 309 307 307 306 307 309 309 309 311 312 312 312 312 311 310 309 311 311 311 313 314 314 313 314 314 314 314 314 314 314 313 313 313 313 312 312 312 312 312 312 312 312 312 312 312 312 312 312 312 312 313 313 313 313 314 315 314 314 313 314 314 314 314 314 314 315
305 301 302 301 300 304 306 311 315 316 316 315 315 316 315 313 313 313 311 308 307 306 306 307 309 308 309 312 313 313 312 311 310 308 307 309 311 313 314 314 313 313 313 314 314 314 314 314 314 313 313 313 313 312 312 312 312 312 312 312 311 311 312 311 311 312 312 312 312 312 312 312 313 314 314 315 314 313 313 314 315 314 313 314 315
308 301 301 301 300 302 302 308 315 316 316 316 315 315 314 313 313 312 309 307 307 305 305 307 308 308 311 313 313 312 312 310 309 306 305 309 313 314 314 313 313 313 313 314 314 314 314 314 314 313 313 313 313 312 312 312 312 312 312 311 311 311 311 311 311 311 311 312 312 312 312 313 313 313 313 314 315 315 314 313 314 314 314 314 315
305 302 300 301 301 301 302 306 313 315 316 316 315 314 314 313 312 310 306 306 306 304 306 308 308 310 312 313 312 312 311 309 306 305 308 313 315 314 313 313 313 313 313 314 314 314 314 314 314 314 313 313 312 312 312 313 312 312 312 311 311 311 311 311 311 311 311 311 311 311 312 312 313 313 313 313 314 316 316 314 313 314 314 314 314
301 301 301 301 301 301 302 306 313 316 316 316 315 313 312 311 310 307 304 304 305 305 307 308 310 311 313 313 312 312 310 307 305 306 311 314 314 313 313 313 312 313 314 313 314 314 314 314 315 314 313 313 313 312 312 313 312 312 312 312 311 311 311 310 310 310 310 311 311 311 312 312 313 314 315 314 314 316 317 317 315 314 314 314 314
301 300 301 301 300 301 303 308 315 317 316 316 314 311 309 308 307 304 303 303 304 307 308 308 310 312 313 313 312 312 309 306 305 308 313 313 313 313 313 312 313 313 313 313 313 313 314 314 315 314 313 313 313 312 313 313 312 312 313 312 311 311 311 310 310 310 310 310 310 311 312 312 312 313 315 315 315 315 316 317 317 315 313 314 314
306 300 300 301 301 301 303 309 315 316 316 315 311 308 307 306 305 303 303 303 304 307 309 308 309 312 314 313 312 311 307 306 306 310 312 312 312 312 312 312 313 313 313 313 313 313 313 314 314 314 314 313 313 313 313 313 313 313 313 312 311 310 310 310 310 310 310 310 310 310 311 311 311 312 314 315 315 315 315 316 317 316 313 313 314
310 301 300 301 300 302 302 307 314 316 315 311 306 306 307 307 305 303 304 305 305 306 308 308 309 312 313 312 312 309 306 306 306 310 312 311 312 312 312 312 313 313 312 312 313 313 313 314 314 314 314 314 313 313 313 313 313 313 313 312 311 310 310 310 310 310 309 309 309 309 310 310 311 312 313 314 314 315 315 316 317 317 315 313 313
314 303 300 301 300 301 301 303 311 313 311 308 309 312 312 310 308 306 307 308 308 306 306 308 308 312 313 312 312 308 306 307 307 310 311 310 312 313 312 312 312 312 312 312 313 312 313 314 313 314 314 314 313 313 313 313 313 312 313 313 311 310 310 309 310 309 309 309 309 309 309 310 311 312 313 313 314 315 316 315 316 317 317 315 314
316 305 300 301 300 301 301 301 304 306 309 311 313 314 314 312 309 309 309 308 307 306 306 307 308 311 312 312 311 307 306 307 307 310 309 309 313 313 312 312 312 312 312 312 312 312 313 313 313 314 314 314 313 313 313 313 313 312 312 313 312 311 310 309 310 309 309 309 308 308 309 310 310 311 312 312 313 315 316 316 315 316 317 318 317
318 307 300 301 301 301 301 300 300 301 305 308 306 306 309 311 310 310 310 308 307 308 308 306 307 311 312 311 310 306 306 307 308 310 309 310 313 313 312 312 312 312 312 312 312 312 312 312 313 313 313 314 314 313 312 312 313 313 312 313 312 311 310 310 310 310 310 309 308 307 308 309 310 311 311 311 313 314 316 317 316 315 316 317 318
320 309 300 300 301 301 301 300 301 300 300 301 301 302 302 305 308 308 309 308 306 308 309 307 307 311 312 311 309 306 307 308 308 310 309 311 313 313 313 312 312 311 311 311 311 311 311 311 312 313 313 313 313 313 312 312 312 312 312 313 312 312 311 311 310 310 310 309 308 307 308 309 310 311 311 312 313 315 316 317 317 316 317 317 317
322 312 301 300 301 300 301 300 300 300 300 300 301 301 299 300 302 303 307 308 305 306 308 306 307 311 312 311 308 306 307 308 309 310 309 311 313 313 313 312 311 311 311 311 311 311 311 311 312 312 312 313 313 312 312 312 312 311 312 312 312 311 311 311 311 310 310 310 308 307 308 308 310 311 311 312 313 314 315 316 317 318 320 319 318
322 314 302 300 301 300 301 301 300 300 300 300 299 299 300 300 301 301 303 306 306 308 309 307 307 310 312 311 308 306 307 309 309 310 310 310 312 313 313 312 312 312 311 311 311 310 311 311 311 312 312 312 312 311 311 311 311 311 311 311 311 311 311 311 311 310 310 310 309 308 308 308 309 310 311 312 312 313 314 314 316 318 320 321 320
322 317 304 300 301 300 301 300 300 301 300 300 299 299 300 301 305 308 308 308 308 309 310 308 307 310 312 311 307 306 308 309 309 310 310 310 311 313 313 313 312 312 311 311 311 310 311 311 311 311 311 311 311 311 310 310 310 310 310 310 310 310 310 310 311 311 310 310 310 308 308 308 309 310 312 312 312 313 313 313 313 315 319 321 322
322 319 307 300 301 301 300 300 300 300 300 299 299 299 300 300 304 309 310 310 309 307 306 306 306 309 313 311 307 306 308 309 309 310 310 311 310 312 313 313 313 312 312 311 311 310 310 311 311 311 311 310 310 310 310 310 310 309 309 309 309 309 310 310 310 311 310 310 310 309 309 308 308 309 311 312 312 313 313 312 311 312 314 318 321
323 321 310 301 301 301 300 300 300 300 300 299 299 300 299 298 301 304 305 308 308 306 305 306 306 308 313 312 307 306 308 309 310 310 310 311 310 311 312 313 313 312 312 312 311 311 311 311 311 311 310 310 310 310 309 309 309 309 309 309 309 309 310 310 310 310 311 310 310 309 309 308 308 309 310 312 313 313 313 312 310 309 311 314 316
323 322 312 301 300 301 300 300 300 300 300 299 299 299 299 298 301 303 304 306 307 307 308 308 306 308 312 312 308 307 308 309 310 310 310 310 310 310 310 311 313 312 312 312 312 311 311 311 310 310 310 310 310 310 310 310 310 310 310 310 310 309 309 310 309 311 311 310 309 310 310 309 309 309 310 312 313 313 313 313 310 309 309 312 313
323 322 313 302 300 301 300 300 300 300 300 299 299 299 298 299 301 303 305 306 308 309 310 309 307 308 313 313 309 307 308 309 310 310 310 311 310 310 308 309 312 312 312 312 312 312 311 310 310 311 311 311 311 311 311 310 310 311 311 311 311 310 310 309 309 311 311 309 309 310 310 310 310 309 310 311 313 313 313 313 312 311 310 311 312
323 322 315 303 300 301 300 300 300 299 299 299 299 298 298 299 300 302 306 308 310 310 310 309 308 308 313 314 310 307 308 309 309 309 310 310 310 309 308 307 309 311 312 312 312 312 311 311 311 311 311 312 311 311 311 311 311 311 311 311 311 311 311 310 310 311 311 310 310 309 310 310 310 310 310 310 312 313 313 312 313 314 313 312 312
323 323 316 304 300 301 300 300 300 299 299 299 299 298 298 299 300 301 304 308 309 309 309 310 309 309 312 314 312 308 306 308 309 309 310 310 310 310 309 307 307 308 310 312 312 313 312 312 312 311 311 312 312 312 312 311 311 312 312 311 311 311 311 311 311 311 311 311 311 310 309 310 310 310 310 310 311 311 312 313 312 313 313 314 313
Wind_Speed
7 7 7 6 7 7 6 6 7 8 8 8 8 8 9 9 10 9 9 8 8 7 7 7 7 7 7 7 7 8 8 9 9 10 10 10 10 11 11 11 12 12 12 13 13 13 13 14 14 14 14 14 15 15 16 16 16 16 16 17 17 17 18 18 18 19 19 19 20 20 20 20 21 20 20 20 20 21 21 21 21 20 18 17 18
6 6 6 5 7 6 6 7 7 8 7 7 7 8 8 8 9 8 8 8 7 7 7 7 7 7 7 8 8 9 9 10 10 10 11 11 11 11 12 13 14 14 14 14 15 16 16 17 17 18 17 18 18 18 19 19 18 18 18 18 18 18 19 19 19 19 19 20 21 21 21 21 21 21 21 21 21 21 22 22 22 21 19 16 18
7 6 6 5 6 6 6 7 7 7 6 6 6 7 7 7 8 8 8 8 7 7 7 8 8 9 9 10 10 11 11 11 11 11 11 11 11 12 13 13 14 15 14 15 16 17 18 19 20 21 21 21 21 21 22 22 21 21 21 20 20 20 20 21 21 21 21 21 21 21 22 22 22 22 22 22 22 21 22 22 22 23 21 19 20
7 6 6 5 6 5 6 7 7 7 5 6 6 7 7 7 8 8 8 8 8 9 9 10 11 11 11 11 12 13 13 13 13 13 12 12 12 13 13 13 14 15 14 13 15 16 18 21 22 23 24 24 24 24 25 25 25 24 23 23 23 23 22 22 22 22 22 22 22 22 22 21 21 22 23 22 23 23 22 23 23 23 22 21 22
6 5 5 5 5 5 5 7 6 6 5 6 6 7 7 8 8 8 9 9 10 11 12 12 13 13 13 13 14 15 15 15 15 15 15 14 14 14 14 13 14 15 15 14 14 17 19 21 23 23 24 25 25 25 26 27 27 26 26 26 25 25 24 24 24 24 24 25 25 24 23 22 22 21 23 23 22 23 23 23 23 22 22 22 23
6 5 5 5 5 4 5 6 5 5 5 5 6 7 8 8 8 9 9 10 11 13 14 14 15 15 15 15 16 16 17 17 17 17 16 15 15 15 14 13 13 15 17 17 17 19 19 18 20 21 20 21 24 24 23 26 28 28 27 27 27 26 26 26 26 26 26 27 26 24 22 22 22 21 23 24 22 22 23 23 23 23 23 23 23
6 7 6 6 5 4 4 5 5 4 5 5 6 7 8 8 9 9 10 10 12 13 14 16 17 17 17 17 18 18 17 17 17 17 16 14 15 14 14 13 14 16 17 17 17 17 15 14 15 16 16 14 18 21 18 20 24 26 28 28 27 27 27 27 28 29 29 29 26 22 21 21 22 21 22 25 22 21 22 22 22 23 23 23 23
8 8 6 5 5 4 3 4 4 4 4 5 6 7 7 8 9 9 10 12 13 14 16 18 20 21 22 24 23 20 17 14 12 13 13 13 14 13 14 14 14 16 14 13 14 15 14 14 15 15 16 14 14 18 18 17 18 21 24 26 26 27 28 29 30 31 32 30 25 21 20 20 21 21 23 25 24 23 22 23 23 23 23 23 23
7 7 5 5 4 4 4 4 4 4 5 6 6 6 7 7 8 9 11 14 15 16 18 20 22 24 26 28 27 23 17 12 9 9 10 12 14 15 16 16 15 14 13 13 14 15 15 16 18 19 20 19 18 20 21 21 20 21 24 25 24 26 27 29 31 33 32 27 23 21 20 20 20 20 21 22 25 26 25 23 23 23 23 23 23
7 7 6 5 5 4 4 5 4 4 5 6 6 6 7 8 9 9 12 14 16 18 20 21 24 26 27 28 27 23 17 10 8 8 9 11 12 12 13 13 14 14 14 16 16 17 18 18 19 22 20 20 22 24 24 24 25 26 28 28 28 29 28 29 31 32 29 24 22 21 20 21 21 21 21 22 23 27 27 24 24 24 23 23 23
7 7 6 6 6 5 5 4 4 4 6 6 6 7 8 9 10 11 13 14 16 18 20 23 25 27 27 27 25 23 17 10 9 9 10 11 11 12 11 11 14 15 16 18 19 20 21 21 20 22 22 23 26 27 26 26 27 28 30 31 31 31 31 31 30 28 24 21 21 20 19 19 19 19 21 23 23 27 30 28 27 27 26 26 26
7 7 7 7 6 5 5 4 4 5 6 7 8 9 9 11 11 12 13 15 17 19 22 24 26 27 26 25 23 21 17 12 10 11 12 13 14 15 15 14 15 16 18 20 21 22 22 22 22 23 25 26 28 29 29 30 30 29 30 31 32 32 32 31 26 23 21 20 20 19 19 18 18 18 21 24 25 27 29 29 29 28 28 28 28
7 7 7 7 6 5 5 5 5 6 8 9 10 10 10 11 12 13 14 16 18 21 23 25 26 26 24 22 21 19 17 14 12 11 11 12 14 16 15 14 15 16 19 21 23 23 23 24 25 26 27 28 30 31 31 32 32 30 29 28 29 30 30 27 21 19 18 18 19 19 19 18 18 19 24 27 28 29 29 29 30 30 29 28 27
7 7 8 8 7 6 6 6 7 8 9 10 11 11 11 12 12 14 15 17 19 22 23 24 24 23 22 20 19 17 15 15 13 12 10 10 12 13 13 13 14 16 18 21 22 23 24 25 26 27 27 29 30 30 30 30 30 29 28 26 26 26 26 23 19 17 17 17 18 18 18 19 18 21 26 27 28 29 29 29 29 29 29 29 28
7 8 8 8 8 8 8 8 8 9 9 10 11 11 11 12 13 15 16 18 20 22 23 23 22 20 20 19 18 15 14 13 12 11 10 10 12 13 14 15 15 16 18 19 21 21 23 23 24 25 25 26 27 27 27 27 27 27 26 26 25 24 24 22 18 17 17 17 17 17 17 18 18 24 28 28 28 28 27 27 27 27 27 28 29
8 8 9 9 9 9 9 9 9 9 8 8 9 10 11 13 14 15 17 19 21 22 22 21 20 20 20 20 17 15 13 12 11 11 10 11 14 15 16 16 16 17 18 20 20 21 21 22 22 23 23 23 24 24 25 25 25 25 25 24 23 22 23 21 18 18 18 17 18 17 17 17 18 24 28 27 27 26 26 26 25 25 26 27 28
8 9 9 9 9 9 9 8 7 7 7 7 8 10 11 13 14 16 18 20 20 20 20 20 20 20 20 19 16 14 12 11 11 12 12 13 15 16 18 18 17 17 17 18 19 19 20 20 21 22 23 23 24 24 24 24 23 23 23 23 23 23 23 21 19 19 19 18 19 18 19 18 20 25 27 26 25 25 24 24 24 24 25 26 27
9 10 10 9 9 8 7 6 5 6 6 5 6 9 11 13 15 17 18 19 19 19 19 20 20 19 18 16 15 14 13 12 12 13 14 15 16 17 18 17 17 17 17 18 18 19 20 21 22 22 23 23 23 23 22 22 22 21 22 22 22 22 23 23 21 20 20 20 20 20 19 19 23 27 28 27 26 25 25 24 24 23 24 25 26
10 11 10 9 7 6 6 5 5 5 5 4 4 7 11 13 15 17 17 17 18 19 19 20 19 18 16 15 15 14 14 14 14 14 14 14 15 15 16 16 16 17 18 19 20 20 20 21 21 21 22 22 22 23 22 22 19 18 19 19 20 21 21 21 20 19 19 21 21 20 20 19 25 29 29 28 27 26 26 25 23 23 24 24 24
12 10 9 8 6 5 4 4 5 5 5 5 5 8 11 13 15 15 15 16 18 20 20 20 19 17 16 15 15 15 15 15 15 14 14 14 14 14 15 16 17 19 19 20 20 20 21 22 22 22 22 22 23 22 21 20 17 16 17 18 18 17 17 16 17 18 19 20 21 21 21 20 26 31 29 28 26 25 25 25 23 22 24 23 22
12 11 10 8 6 5 3 3 3 4 5 6 7 9 11 12 13 15 16 18 20 21 21 20 19 17 17 16 16 16 16 16 15 15 14 15 15 16 17 18 20 20 21 21 22 22 24 25 23 22 21 21 22 20 19 19 18 18 18 18 17 15 14 15 16 17 17 18 20 20 20 21 27 29 27 26 25 24 24 25 24 22 22 22 21
9 10 10 8 5 4 3 2 3 5 6 7 8 9 10 11 13 16 18 20 22 22 22 20 19 17 16 17 17 17 16 17 16 16 16 16 17 19 20 22 23 23 23 23 22 22 25 25 20 19 20 21 21 18 17 18 18 18 18 18 17 15 15 15 15 15 16 17 19 19 20 24 27 26 25 24 24 24 24 24 25 24 21 20 20
9 8 9 8 6 3 3 3 3 5 6 8 8 8 10 11 13 16 18 21 23 23 22 20 18 17 17 18 17 17 17 17 17 18 18 19 21 24 25 26 27 26 27 23 17 18 22 21 19 20 21 20 18 17 17 17 17 17 17 17 16 15 15 15 15 16 17 18 18 19 21 24 23 23 23 24 24 24 24 24 25 25 24 22 20
10 8 8 9 7 4 4 5 5 6 7 7 8 8 9 9 11 14 16 19 21 21 20 20 19 18 18 17 16 17 18 17 19 20 18 20 21 23 25 25 26 25 24 20 15 17 19 19 20 20 20 19 18 17 17 15 15 15 15 16 16 16 16 15 15 16 18 18 18 19 22 23 21 21 22 22 24 24 24 24 24 25 26 25 22
9 7 7 8 9 7 5 6 6 7 7 6 7 8 10 9 10 14 16 18 18 18 19 19 19 18 18 17 17 18 18 16 19 20 18 20 21 22 22 22 24 21 18 18 17 18 19 19 19 19 19 18 18 17 16 14 15 16 16 16 17 17 17 16 16 17 18 17 18 19 21 23 21 19 20 21 24 25 24 25 25 25 26 26 25
8 8 7 8 9 8 7 6 6 7 8 7 7 9 9 8 11 14 15 16 17 17 17 17 17 19 20 19 19 18 17 16 18 20 19 21 21 22 22 21 23 19 17 18 18 19 19 19 19 18 18 17 16 16 15 15 16 17 17 17 17 17 17 16 15 16 16 16 17 18 19 22 21 18 19 19 21 24 25 26 25 25 26 26 27
8 9 8 8 8 8 9 8 6 7 8 9 8 7 9 9 12 14 15 16 17 17 16 16 18 20 21 21 20 18 16 16 17 20 20 21 21 22 22 21 20 18 18 19 19 19 19 19 17 16 16 16 16 15 15 16 16 17 17 17 16 16 16 15 14 15 15 15 16 17 18 20 20 19 19 19 19 22 24 26 26 26 26 26 26
9 10 9 8 8 9 10 8 8 8 7 9 8 7 9 11 12 13 16 19 17 16 17 17 17 18 20 21 19 18 17 17 19 20 20 21 22 23 22 20 20 18 18 18 19 20 18 16 15 15 15 15 15 15 15 15 16 16 16 15 15 15 16 15 15 16 16 16 16 18 19 20 21 20 20 19 19 20 22 24 26 27 27 26 26
11 11 10 9 9 9 9 8 8 7 7 7 7 7 9 11 12 13 16 18 17 17 18 16 16 16 19 20 19 19 18 19 21 21 20 21 22 22 22 20 19 18 18 19 18 18 16 15 14 14 14 15 15 15 15 16 15 15 14 14 15 16 16 17 17 17 17 18 18 19 19 19 20 20 20 20 20 20 20 22 24 26 28 27 26
13 12 11 9 8 8 7 8 8 6 6 6 6 7 9 10 11 13 15 15 16 17 16 15 16 17 18 19 19 19 19 20 22 21 21 21 21 22 21 19 19 18 18 18 17 15 14 15 15 14 14 14 15 15 15 15 14 14 14 15 17 17 17 18 19 18 17 18 18 19 19 18 18 19 20 20 20 20 20 21 22 23 26 27 26
14 12 10 9 8 8 7 7 7 5 5 6 6 7 9 11 12 12 13 15 16 15 13 14 16 17 18 20 20 20 20 20 22 22 22 21 21 22 20 19 19 18 18 17 16 14 13 14 14 15 15 13 14 15 14 13 13 14 16 17 17 17 19 19 19 19 18 19 20 20 20 19 18 18 19 19 20 20 20 20 21 21 22 25 27
14 13 11 9 9 8 7 7 6 5 5 6 6 6 8 11 12 11 13 15 16 13 12 14 16 18 20 20 20 20 20 21 22 22 23 22 21 20 19 19 19 18 17 16 16 14 12 13 13 13 14 13 14 14 13 12 13 15 15 17 17 18 19 20 19 18 17 18 19 19 20 20 18 17 18 18 19 19 20 20 20 20 20 22 24
12 13 12 11 11 9 9 8 6 4 5 5 5 6 7 10 11 12 14 15 14 13 13 15 17 19 20 20 20 19 20 21 21 22 24 22 19 18 18 19 18 17 16 15 15 15 13 13 12 13 13 13 13 14 13 13 13 14 14 16 18 18 19 18 17 16 17 18 17 17 21 21 20 19 17 16 16 17 18 20 20 20 20 20 21
12 13 13 12 11 9 9 9 6 4 4 4 5 6 7 10 11 12 15 14 12 12 14 15 17 18 19 19 19 19 20 20 21 24 23 18 17 18 19 18 17 16 15 13 14 15 14 13 13 13 13 13 14 14 13 12 13 14 14 17 19 18 17 16 16 17 17 17 16 17 20 20 20 21 20 16 14 15 16 17 20 21 21 19 19
16 14 14 12 10 9 10 8 6 4 4 4 5 6 8 10 11 13 14 14 12 13 14 15 15 17 18 18 18 18 19 19 23 25 19 15 16 17 17 17 16 15 13 13 14 14 13 12 12 13 13 14 14 14 13 12 13 14 13 16 19 17 16 16 16 17 17 16 17 18 18 18 18 20 20 17 12 12 14 16 18 20 21 19 19
18 15 14 12 11 10 10 8 5 4 4 4 5 7 10 12 13 14 15 14 13 12 14 15 14 16 17 17 17 18 19 20 24 23 16 16 17 17 17 16 15 14 13 14 15 15 13 12 12 12 13 14 15 16 15 13 13 13 12 14 17 17 17 18 16 17 17 16 17 20 19 17 17 18 18 17 16 13 13 14 15 17 20 20 19
19 16 13 12 11 10 10 8 5 4 4 4 7 10 11 13 13 14 14 14 14 12 12 14 15 16 17 17 17 17 19 21 25 20 15 18 17 17 17 16 15 14 14 15 14 16 14 11 12 11 12 14 14 17 16 13 13 12 11 12 15 16 17 18 17 17 18 17 18 21 20 17 17 17 16 16 18 16 12 12 13 14 16 19 20
19 16 13 12 10 10 10 8 5 3 4 6 9 11 12 13 13 14 15 15 14 13 13 13 14 16 17 17 17 17 19 22 25 19 17 20 17 16 17 16 15 14 15 15 15 17 15 12 13 12 12 13 13 17 16 13 12 11 10 9 12 15 16 17 17 16 18 21 22 24 22 19 17 15 14 14 15 17 14 11 11 11 11 15 18
19 16 13 11 10 10 11 10 7 5 7 10 10 9 10 11 11 12 13 12 11 12 12 12 14 16 17 17 16 17 19 22 24 20 22 23 15 15 18 16 16 15 16 17 17 18 16 15 14 13 14 13 13 17 17 14 13 12 10 9 10 12 15 17 18 18 19 23 25 27 27 22 18 16 14 15 14 15 16 13 10 10 9 11 15
18 16 12 10 10 10 10 10 10 9 8 9 8 6 6 8 9 10 10 10 10 10 12 12 14 15 16 16 15 16 19 22 23 21 26 26 16 15 18 17 17 16 17 18 18 18 16 16 16 15 16 14 14 17 18 16 14 13 10 9 9 10 14 16 17 19 19 22 28 31 30 25 22 19 16 16 15 13 13 12 8 8 9 9 11
17 16 12 10 9 10 10 11 11 11 8 7 7 7 6 6 8 8 8 9 9 9 11 12 13 15 15 15 14 16 18 21 23 23 27 27 16 14 18 18 19 17 17 18 19 18 16 17 16 16 16 16 16 17 19 17 16 17 12 10 10 8 12 15 17 22 20 22 31 33 31 29 24 20 19 18 16 12 9 7 5 5 7 8 8
14 15 12 9 9 10 10 11 11 11 10 10 10 10 10 8 7 7 7 8 9 9 9 10 13 14 14 14 13 15 18 21 23 25 28 25 16 14 17 19 20 19 19 18 19 18 18 18 18 17 17 17 17 17 20 20 18 20 16 13 14 11 11 15 17 21 21 23 31 34 33 31 26 22 22 23 21 17 13 9 4 2 3 5 6
13 15 12 9 9 10 10 11 11 11 11 11 11 11 12 12 10 9 8 7 9 10 10 10 12 13 14 13 13 14 17 20 22 24 27 25 17 15 16 19 21 22 21 19 19 19 19 18 18 18 18 18 18 17 19 20 20 21 18 15 17 16 15 18 18 18 20 22 28 33 34 33 30 28 27 26 27 25 22 21 16 11 7 3 3
11 14 13 9 8 9 10 10 11 11 11 11 12 13 13 13 13 13 11 9 9 10 9 9 11 13 13 12 12 14 17 19 21 23 25 26 21 16 16 18 19 21 21 20 20 20 19 17 17 18 18 18 19 18 18 19 20 21 19 16 16 17 17 20 19 16 19 22 25 30 32 32 32 33 32 29 32 34 32 33 32 26 17 8 3
9 12 12 8 7 8 9 10 10 10 10 10 12 13 12 11 11 11 10 9 9 8 6 7 10 12 12 11 11 13 16 18 20 22 23 25 25 20 16 17 18 19 21 21 20 20 18 17 16 17 17 18 19 18 18 18 19 20 18 16 16 16 18 21 19 16 20 23 24 28 30 31 33 36 37 35 36 38 37 38 39 37 29 20 14
8 10 11 8 6 7 9 9 10 9 9 10 11 12 11 11 10 7 6 6 7 7 7 8 10 11 10 9 10 12 14 16 18 21 22 23 26 23 18 16 17 18 18 19 20 20 19 17 16 15 16 18 19 20 21 19 19 19 18 17 15 13 17 21 20 16 18 23 25 27 29 31 32 33 38 40 38 37 37 38 38 40 39 33 29
7 9 10 8 6 7 8 9 9 9 9 10 11 11 12 12 11 9 8 7 7 8 9 8 9 10 8 7 9 11 12 14 16 19 21 22 25 24 19 17 17 17 16 17 20 20 18 16 15 14 15 18 20 21 22 20 19 19 19 17 16 17 18 20 21 17 16 21 26 27 29 32 31 31 34 38 40 38 38 38 38 41 41 41 42
7 8 9 8 5 6 7 8 8 8 8 9 10 10 11 12 11 10 10 9 8 8 8 7 8 9 8 6 8 9 10 13 15 17 20 21 24 24 22 20 16 16 16 16 17 18 17 16 16 15 17 18 18 19 19 18 17 17 19 19 19 21 21 21 23 19 17 22 25 26 30 32 31 31 32 34 37 39 39 39 41 43 40 41 47
6 7 9 8 6 6 6 7 7 7 7 8 9 10 11 12 10 9 10 9 9 8 7 6 6 8 7 5 6 7 8 11 13 16 19 20 22 23 24 22 17 15 15 15 15 15 16 17 18 17 17 17 16 16 16 15 15 16 18 19 20 21 21 23 24 22 22 24 25 28 31 32 33 31 30 31 33 36 40 40 41 44 40 39 45
6 6 8 8 5 5 5 6 6 6 7 8 9 10 11 11 10 10 10 8 8 7 6 6 6 7 7 5 5 6 7 9 11 14 17 19 20 21 23 23 21 17 14 14 14 14 14 15 16 16 17 16 16 17 16 15 15 16 18 18 19 21 21 22 23 22 21 22 23 27 29 31 34 32 29 29 30 32 38 40 39 42 41 38 41
6 6 7 7 5 5 5 5 5 5 6 7 9 10 11 10 9 10 10 8 7 7 6 6 5 6 6 5 4 5 5 7 9 13 15 16 18 19 21 23 23 21 17 15 13 13 13 13 13 14 15 16 16 16 17 17 16 15 16 17 18 20 21 20 19 18 18 19 20 24 28 30 31 31 30 28 29 31 34 36 37 39 39 37 38
Wind_Direction
70 63 62 67 69 67 63 51 44 40 37 38 40 44 43 42 40 39 34 27 23 18 13 8 6 1 357 353 346 341 337 335 331 329 326 323 320 318 313 308 306 304 303 303 301 298 297 297 296 296 294 292 291 289 286 286 286 286 285 283 281 278 275 273 272 272 271 272 271 270 269 267 266 265 263 261 259 258 258 258 258 256 255 258 262
75 67 64 61 68 68 66 56 48 46 46 50 48 45 42 37 33 28 22 15 10 3 360 354 349 345 341 340 335 332 329 328 326 324 321 318 315 313 310 305 303 303 300 299 298 296 294 293 294 294 293 291 289 289 286 284 284 284 283 281 281 279 276 275 273 272 270 270 269 269 268 266 265 265 264 262 260 258 257 256 257 255 251 248 251
75 71 72 66 67 66 65 59 54 55 53 53 45 41 35 29 23 16 10 360 353 347 344 341 338 336 333 333 328 325 324 323 322 319 317 313 310 308 308 306 303 303 305 304 300 298 297 295 295 295 294 293 291 290 288 286 284 283 282 281 280 279 277 276 274 273 271 269 269 268 268 268 267 265 263 263 261 259 257 255 255 253 250 245 241
75 76 78 70 63 60 62 61 60 59 53 45 33 30 24 17 11 5 360 346 341 338 339 340 338 334 330 327 321 319 317 316 315 313 311 307 306 305 306 309 309 306 306 311 309 302 301 301 298 296 295 295 294 294 291 288 287 284 283 283 282 280 279 277 275 274 272 270 269 267 267 268 269 267 264 261 259 257 256 254 254 253 250 248 246
84 84 77 71 59 48 66 68 64 56 43 34 21 17 12 7 2 358 350 339 339 338 339 339 335 329 324 321 317 313 309 307 306 305 306 306 303 301 303 308 308 306 307 309 311 307 307 307 302 297 297 295 295 295 294 290 288 287 286 285 284 283 282 279 278 275 273 271 268 268 268 269 269 270 269 264 257 256 255 254 254 254 252 250 249
89 86 79 76 57 44 75 73 62 51 36 26 17 13 9 5 359 355 346 339 339 337 337 334 329 325 323 320 317 313 306 302 300 299 300 304 302 302 308 311 307 307 311 311 313 314 312 311 308 305 305 305 300 295 295 295 291 288 287 286 285 284 284 282 280 277 274 271 269 271 273 272 269 267 269 268 260 256 255 255 256 256 256 254 253
89 85 82 78 67 59 73 66 55 39 33 24 18 16 11 6 358 352 342 338 337 336 334 330 327 327 326 324 322 320 311 302 298 293 295 299 298 304 310 309 311 315 315 315 315 307 303 301 301 303 306 313 306 298 296 301 300 295 288 284 284 283 283 282 280 277 274 273 274 276 274 271 270 266 264 264 262 258 256 255 256 257 257 257 256
91 91 90 83 74 69 61 52 46 31 32 26 22 17 10 4 357 351 338 337 337 335 332 329 331 332 332 331 331 334 326 314 304 291 290 291 287 291 295 296 305 315 311 304 296 286 289 288 283 284 290 295 294 292 290 290 294 300 296 287 286 284 281 280 278 276 275 277 279 278 273 269 269 268 269 271 268 261 258 258 257 258 257 258 257
93 88 80 73 66 56 47 39 34 28 30 25 22 17 10 0 354 346 335 336 336 333 331 331 333 334 334 333 335 340 338 330 330 315 295 287 285 284 286 291 292 297 292 281 279 280 284 280 279 280 285 288 285 289 289 284 280 287 295 293 291 287 282 278 275 274 275 280 280 276 273 270 266 266 269 273 275 266 259 260 259 259 258 258 257
88 75 59 52 51 42 40 37 35 29 25 21 16 12 2 351 346 339 333 334 333 331 330 332 333 333 333 333 335 340 342 331 326 329 307 291 296 298 296 294 285 284 281 276 278 283 286 281 279 281 289 295 291 293 291 288 284 282 287 291 293 291 288 282 278 278 280 281 278 275 271 268 266 263 260 261 268 266 259 259 260 259 258 258 257
72 65 56 45 42 40 40 41 37 27 17 7 356 353 348 340 339 335 330 329 328 329 331 333 333 332 331 332 336 341 343 332 312 311 305 296 294 298 301 293 282 281 279 278 280 284 290 289 285 283 289 292 290 294 293 291 289 284 286 290 291 291 291 288 285 285 285 281 275 272 268 268 268 267 265 261 261 261 259 259 260 260 259 259 259
65 61 57 45 40 41 40 32 19 6 354 346 337 337 338 334 331 327 326 328 331 332 333 332 330 329 330 334 339 340 342 339 327 314 303 295 287 287 291 288 279 279 280 280 283 288 291 291 291 289 288 288 288 292 295 296 294 290 288 288 288 287 289 291 292 291 286 279 273 269 269 270 270 267 261 255 254 259 262 261 260 261 260 259 259
60 53 45 33 27 24 16 1 345 333 329 330 328 329 330 326 326 327 330 333 333 332 330 328 327 328 332 339 340 338 338 340 339 327 312 297 290 291 294 291 283 280 281 283 287 292 293 291 292 293 292 290 291 292 293 295 296 296 294 290 287 287 288 292 299 297 288 279 273 271 272 271 270 268 261 255 254 259 265 264 263 261 260 260 259
42 28 23 14 8 6 354 340 330 323 323 325 326 328 327 325 328 331 332 331 329 326 325 326 328 332 337 342 342 339 338 339 340 335 326 310 305 308 312 313 305 296 292 292 295 296 297 297 296 296 295 294 294 295 295 295 295 296 296 294 291 289 288 292 300 295 287 281 276 275 272 271 269 266 263 261 262 265 269 268 266 263 260 259 258
23 15 13 5 2 360 350 341 333 329 329 328 329 328 326 328 330 330 327 325 324 324 326 329 333 338 341 344 346 345 344 346 348 347 339 326 325 325 325 328 323 316 309 306 306 305 303 302 301 300 299 298 297 297 296 295 296 296 296 296 293 290 288 290 293 288 285 281 280 279 274 273 270 266 263 263 268 272 274 272 269 265 261 258 257
18 15 7 359 358 352 344 339 334 332 331 328 325 324 325 325 325 323 322 323 325 327 330 333 339 344 346 348 352 354 355 358 359 357 348 335 333 332 331 333 330 323 316 313 313 311 310 308 307 305 304 304 303 302 302 302 302 301 300 299 296 291 288 288 288 286 283 281 281 279 277 278 274 270 269 269 271 272 274 275 272 266 261 258 256
11 7 355 350 348 342 337 333 330 326 322 322 319 316 318 318 319 321 323 325 327 330 334 340 346 350 350 354 0 4 5 5 359 355 349 341 338 334 334 335 331 327 322 320 320 318 317 314 312 311 311 311 310 310 311 310 309 307 306 304 299 293 287 285 286 284 280 280 280 277 279 280 273 267 268 273 273 271 271 273 272 266 261 257 256
353 349 342 340 338 334 332 326 317 308 309 324 327 315 314 317 320 323 325 328 330 336 344 349 351 353 357 1 7 9 7 3 355 351 347 342 340 336 335 338 337 335 333 329 328 325 322 320 318 318 318 317 318 317 315 311 309 309 309 307 305 298 291 287 285 282 282 281 277 278 281 276 269 266 269 276 276 270 267 269 271 266 261 258 256
341 340 335 335 335 335 334 321 304 294 293 301 324 319 317 320 322 325 328 332 339 348 353 354 357 1 5 8 9 9 6 2 356 352 349 345 344 343 344 346 345 342 340 336 335 333 331 330 329 327 326 325 323 319 316 313 307 306 308 307 305 302 301 300 291 283 283 280 279 280 278 273 271 269 273 280 278 272 267 266 268 266 263 260 258
346 347 343 345 348 346 335 318 303 292 294 296 306 312 316 321 325 332 338 346 354 359 359 1 6 9 9 10 11 10 8 5 1 359 357 358 359 358 355 352 350 347 346 346 345 344 343 339 334 331 329 327 324 323 328 325 317 313 313 309 307 307 309 306 292 283 281 280 283 281 277 275 271 271 276 279 277 274 267 263 263 263 262 261 260
358 3 4 6 6 356 336 330 310 296 302 305 311 316 325 334 338 347 355 2 5 4 4 8 11 11 10 12 13 13 12 11 10 10 11 11 10 4 360 356 355 355 355 353 351 351 347 340 334 333 331 331 334 339 339 329 321 319 317 315 316 315 307 297 287 284 283 283 285 282 281 275 268 272 276 273 271 271 267 261 258 256 257 259 259
17 14 14 25 30 16 353 346 318 314 322 327 337 343 349 354 356 1 5 8 8 7 9 12 12 11 13 17 19 18 19 20 17 19 21 17 11 6 3 2 0 359 358 352 349 350 347 344 337 334 335 337 340 339 330 321 320 320 318 319 319 313 304 298 292 290 287 285 285 281 280 275 273 277 274 267 266 266 265 261 257 255 252 252 254
35 29 18 32 49 39 10 360 350 360 7 1 10 12 8 10 5 6 8 7 7 8 10 14 15 15 19 24 23 23 26 25 21 22 20 15 9 6 5 4 1 359 357 351 344 342 344 345 337 336 340 337 334 329 323 323 321 321 321 322 317 310 305 301 298 297 294 290 288 285 281 281 284 283 272 264 262 263 263 260 257 256 253 249 247
39 38 22 30 48 51 25 19 23 34 38 26 29 23 18 22 9 8 10 6 6 8 11 14 17 20 27 31 27 28 31 22 17 20 15 10 6 3 3 360 358 356 353 352 344 338 341 341 335 336 337 332 331 328 325 325 323 324 324 322 319 314 309 304 302 300 297 293 291 291 288 287 292 288 276 266 261 261 261 258 257 256 255 252 246
43 41 29 30 41 53 51 33 27 38 48 40 32 28 28 25 9 10 9 5 7 12 13 12 17 27 34 35 32 30 28 17 14 17 11 7 6 2 360 355 356 353 346 348 344 339 340 337 334 336 336 335 333 329 326 327 328 328 325 323 322 318 315 311 307 302 298 295 294 295 293 292 294 292 283 271 262 260 258 257 256 255 255 255 250
40 41 41 39 40 52 64 53 31 34 47 50 38 28 29 21 11 13 10 6 10 14 13 14 22 30 34 34 32 27 23 15 11 13 11 7 4 1 359 354 354 350 342 345 341 338 339 336 336 338 339 338 334 332 331 331 331 329 327 327 324 321 319 315 310 307 303 300 298 296 296 297 298 296 289 279 268 262 259 257 255 254 254 255 253
39 43 45 43 44 53 60 60 48 40 39 43 45 28 24 19 12 12 11 14 17 15 14 21 26 26 30 33 31 27 22 14 10 12 10 6 3 0 359 354 351 348 343 344 340 339 339 337 337 339 339 337 336 337 335 333 334 332 331 329 327 325 322 319 316 314 311 307 302 300 300 300 299 298 293 286 276 267 261 258 256 254 253 253 253
46 47 47 41 42 50 56 57 52 52 44 40 43 28 21 17 13 10 11 17 19 16 19 27 28 23 28 34 31 29 23 15 15 15 9 5 4 0 358 354 350 348 345 344 342 340 339 338 337 339 339 338 338 339 337 337 339 337 336 333 333 332 329 327 324 320 317 313 309 307 303 299 299 298 293 289 282 273 265 261 257 255 254 252 252
46 48 45 36 34 43 54 57 50 48 48 44 40 27 19 14 13 12 12 16 15 18 24 29 30 27 30 35 32 27 24 20 20 18 10 7 3 358 357 354 351 349 346 345 344 341 341 340 339 342 342 341 340 340 340 341 343 342 339 339 339 337 334 331 327 323 319 315 313 309 302 299 300 299 294 290 286 279 270 264 260 257 255 253 252
41 44 39 28 30 39 41 47 47 44 48 48 38 25 19 15 15 14 11 13 16 20 25 29 34 34 33 35 31 26 26 23 23 19 12 7 0 357 357 354 352 351 347 347 345 343 344 343 342 345 344 344 345 344 344 344 348 346 344 346 343 339 337 333 330 324 318 315 312 306 299 298 300 300 295 289 285 281 275 267 262 259 256 254 252
35 40 37 28 33 41 34 34 41 43 49 45 33 23 17 17 19 14 9 12 21 24 26 34 39 38 35 33 30 28 28 25 22 18 13 6 359 358 358 354 353 350 349 349 347 345 347 346 347 348 344 347 350 346 346 347 352 351 349 350 344 342 341 336 331 326 320 317 314 310 305 301 300 299 297 292 286 281 278 271 264 260 257 254 251
27 33 36 34 39 45 42 40 42 39 44 40 28 21 15 17 17 12 12 15 23 28 34 41 42 39 35 32 32 31 29 25 20 17 13 7 360 358 357 353 352 351 350 350 349 347 349 349 350 352 347 350 352 348 350 352 354 353 351 351 347 345 343 340 337 333 330 329 326 322 319 313 307 301 296 294 292 284 277 272 266 262 257 253 251
23 25 31 35 39 43 46 45 44 37 36 37 26 21 17 16 14 10 15 20 25 34 44 45 43 38 32 32 35 32 29 24 19 15 14 9 0 358 357 354 353 353 351 349 353 352 350 352 354 355 350 352 355 352 353 352 352 353 351 353 351 348 347 346 344 342 341 340 336 330 329 328 324 317 307 297 295 294 284 273 267 262 258 254 253
28 25 28 33 35 41 49 46 42 40 33 33 29 24 18 16 12 10 16 26 33 41 50 47 40 35 31 32 34 32 28 23 19 17 15 8 360 359 357 356 355 355 352 352 358 355 352 357 357 355 354 355 357 354 353 350 350 351 349 354 354 350 350 350 349 348 345 342 337 331 331 333 330 324 319 309 296 294 291 280 270 262 258 256 254
30 27 26 30 32 38 50 47 40 43 38 33 30 24 21 17 11 13 22 34 44 48 51 47 37 34 33 32 32 31 27 23 22 20 15 7 2 1 358 358 358 356 354 356 1 357 355 1 358 356 356 355 357 355 352 348 347 345 347 355 356 351 352 354 354 353 351 347 343 338 335 334 330 325 323 321 307 291 288 284 275 265 257 254 253
28 27 25 26 29 37 49 49 43 47 44 39 34 23 19 16 12 18 29 42 52 52 49 46 41 39 38 34 31 31 28 26 26 22 16 12 8 4 2 1 360 357 358 1 1 360 0 2 1 360 358 356 358 357 354 348 346 344 346 357 359 356 359 1 1 359 358 355 351 348 344 339 333 328 324 321 318 308 290 283 280 269 258 252 252
25 26 24 24 29 38 46 49 48 46 45 38 29 22 18 17 15 22 35 46 56 57 50 46 45 42 40 36 33 32 30 30 31 25 17 19 13 8 8 5 5 2 2 4 2 4 5 3 7 8 359 358 358 356 355 351 347 344 344 359 5 3 4 5 7 6 4 2 358 354 349 344 340 336 330 323 322 319 301 285 282 274 261 251 250
22 23 23 25 31 41 45 47 49 43 41 39 31 25 20 17 16 25 37 44 51 58 55 50 46 43 40 37 35 34 33 36 36 28 25 29 20 13 14 10 10 7 6 10 7 8 8 6 12 12 1 360 360 358 358 353 347 343 341 358 12 10 6 7 8 7 8 9 5 1 357 351 350 348 342 339 332 323 310 291 283 280 269 254 251
19 20 23 26 32 44 47 44 46 46 37 33 28 20 13 11 16 27 37 43 47 53 56 51 45 42 40 38 37 35 36 42 40 33 35 38 26 18 19 14 15 14 13 16 12 9 9 11 14 12 5 3 4 3 0 358 352 345 341 350 16 21 12 7 6 6 12 14 12 10 6 359 358 1 352 349 346 328 314 302 287 279 273 261 256
17 18 22 26 33 45 50 47 47 50 40 27 21 15 3 3 18 30 34 41 49 52 54 52 45 42 41 39 39 38 42 46 42 37 41 42 32 23 24 19 20 20 18 18 16 14 11 12 14 13 11 7 11 9 4 4 357 352 352 351 7 17 11 12 10 7 12 17 19 18 14 8 5 8 3 354 354 342 322 312 293 267 264 265 262
16 16 20 25 34 46 52 52 52 54 55 50 42 40 36 19 20 31 32 38 51 50 45 47 45 41 42 42 40 42 48 50 45 41 43 42 33 27 26 23 23 21 20 19 19 19 16 17 15 14 15 10 12 14 11 13 6 2 3 356 1 8 12 20 17 10 11 17 22 23 20 16 12 14 16 13 14 17 7 346 322 277 268 267 266
12 14 18 23 32 45 50 53 54 55 55 55 49 40 40 40 35 41 40 41 58 61 48 45 46 43 42 44 43 47 53 53 48 45 43 39 32 29 27 24 23 21 21 20 19 21 22 23 18 16 19 15 14 16 16 19 14 8 6 2 6 6 3 12 16 12 12 19 24 25 23 22 23 29 31 32 38 43 46 41 29 8 323 282 262
9 13 17 20 31 43 48 52 54 54 51 49 50 41 36 40 44 53 58 52 58 63 55 48 48 45 43 45 46 51 57 56 51 47 43 38 32 30 28 27 26 24 23 22 22 21 22 23 20 19 21 19 17 18 19 19 17 14 13 10 9 7 359 359 7 10 10 18 25 26 26 25 29 39 40 42 49 51 52 55 60 66 51 9 261
7 12 14 17 30 42 48 52 52 53 52 45 47 44 36 35 39 47 56 57 56 56 49 45 49 48 45 47 50 55 61 59 54 49 43 39 35 32 30 29 28 26 25 25 25 24 23 22 21 21 22 24 20 16 19 22 20 20 18 12 11 13 4 354 356 5 8 15 25 27 27 25 28 37 41 44 50 52 54 54 55 58 64 69 65
2 10 12 15 28 43 50 52 52 51 50 46 45 45 40 39 39 38 41 47 52 57 55 49 50 49 46 49 54 60 64 61 55 49 43 39 37 35 31 29 28 28 28 28 28 27 26 24 23 23 24 27 24 18 22 25 25 28 27 22 19 13 3 357 357 3 10 14 23 29 29 28 28 34 40 45 51 54 54 53 52 52 62 77 75
351 7 11 14 24 45 53 52 52 50 49 47 46 47 46 48 54 54 50 51 51 59 66 62 55 48 44 51 59 64 65 62 56 49 42 38 38 37 34 31 30 30 30 32 32 30 28 27 26 27 26 27 29 29 31 31 32 36 38 34 29 16 3 5 5 360 7 17 26 32 33 33 32 34 39 43 50 56 53 51 51 50 55 69 72
339 2 8 14 24 44 56 54 50 48 47 47 45 44 43 45 51 56 60 60 53 53 58 58 57 51 43 53 64 66 67 63 57 49 41 37 38 38 36 35 34 31 30 33 35 33 31 30 29 31 32 33 35 37 36 37 37 37 38 35 30 26 18 15 14 3 3 16 26 34 38 37 35 35 39 42 47 54 54 51 50 50 51 60 65
327 354 5 13 25 42 54 55 50 46 45 47 46 43 43 44 46 50 53 56 52 47 44 43 52 53 46 57 69 70 70 65 57 48 41 37 38 40 39 38 37 33 32 33 34 35 34 34 36 39 40 39 37 38 35 35 36 32 31 30 27 28 26 24 22 13 11 17 24 32 36 39 38 36 37 41 44 50 55 54 52 53 49 53 61
317 342 1 12 25 40 51 54 49 44 41 45 47 43 44 46 47 53 54 50 47 43 36 36 50 55 47 54 75 77 73 66 57 47 42 40 39 41 41 39 37 35 34 33 31 33 36 37 41 43 42 39 34 35 33 29 29 27 26 25 23 26 26 27 25 21 22 24 24 25 27 34 39 38 37 40 45 50 56 58 55 56 52 49 59
307 330 358 13 25 37 47 52 49 44 39 43 47 42 45 48 50 58 59 50 46 45 43 42 47 56 53 50 68 79 77 68 57 47 44 44 41 42 44 42 40 39 35 33 32 32 34 35 36 37 37 36 30 30 30 26 24 23 24 22 19 21 21 21 21 21 23 25 25 25 25 29 33 37 37 36 43 50 56 60 57 58 56 51 56
296 320 356 14 25 32 40 51 50 45 41 43 46 44 45 49 52 60 63 57 48 43 46 51 47 53 57 51 56 75 79 70 59 49 45 46 44 43 46 45 43 43 39 36 33 31 30 27 27 29 28 29 28 23 21 23 21 17 18 19 17 17 16 13 14 15 18 19 21 25 29 33 34 38 41 39 42 47 52 58 57 58 59 56 58